SCP
0 0 0 0 0 0 0 0 0 0 0 0 0 0 0 0 0 0 0 0 0 0 0 0 0 0 0 0 0 0 0 0 0 0 0 0 0 0
0 0 0 0 0 0 0 0 0 0 0 0 0 0 0 0 0 0 0 0 0 0 0 0 0 0 0 0 0 0 0 0 0 0 0 0 0 0
0 0 0 0 0 0 0 0 0 0 0 0 0 0 0 0 0 0 0 0 0 0 0 0 0 0 0 0 0 0 0 0 0 0 0 0 0 0
0 0 0 0 0 0 0 0 0 0 0 0 0 0 0 0 0 0 0 0 0 0 0 0 0 0 0 0 0 0 0 0 0 0 0 0 0 0
0 0 0 0 0 0 0 0 0 0 0 0 0 0 0 0 0 0 0 0 0 0 0 0 0 0 0 0 0 0 0 0 0 0 0 0 0 0
0 0 0 0 0 0 0 0 0 0 0 0 0 0 0 0 0 0 0 0 0 0 0 0 0 0 0 0 0 0 0 0 0 0 0 0 0 0
0 0 0 0 0 0 0 0 0 0 0 0 0 0 0 0 0 0 0 0 0 0 0 0 0 0 0 0 0 0 0 0 0 0 0 0 0 0
0 0 0 0 0 0 0 0 0 0 0 0 0 0 0 0 0 0 0 0 0 0 0 0 0 0 0 0 0 0 0 0 0 0 0 0 0 0
0 0 0 0 0 0 0 0 0 0 0 0 0 0 0 0 0 0 0 0 0 0 0 0 0 0 0 0 0 0 0 0 0 0 0 0 0 0
0 0 0 0 0 0 0 0 0 0 0 0 0 0 0 0 0 0 0 0 0 0 0 0 0 0 0 0 0 0 0 0 0 0 0 0 0 0
0 0 0 0 0 0 0 0 0 0 0 0 0 0 0 0 0 0 0 0 0 0 0 0 0 0 0 0 0 0 0 0 0 0 0 0 0 0
0 0 0 0 0 0 0 0 0 0 0 0 0 0 0 0 0 0 0 0 0 0 0 0 0 0 0 0 0 0 0 0 0 0 0 0 0 -0
0 0 0 0 0 0 0 0 0 0 0 0 0 0 0 0 0 0 0 0 0 0 0 0 0 0 0 0 0 0 0 0 0 0 0 0 0 0
0 0 0 0 0 0 0 0 0 0 0 0 0 0 0 0 0 0 0 0 0 0 0 0 0 0 0 0 0 0 0 0 0 0 0 0 0 0
0 0 0 0 0 0 0 0 0 0 0 0 0 0 0 0 0 0 0 0 0 0 0 0 0 0 0 0 0 0 0 0 0 0 0 0 0 0
0 0 0 0 0 0 0 0 0 0 0 0 0 0 0 0 0 0 0 0 0 0 0 0 0 0 0 0 0 0 0 0 0 0 0 0 0 0
0 0 0 0 0 0 0 0 0 0 0 0 0 0 0 0 0 0 0 0 0 0 0 0 0 0 0 0 0 0 0 0 0 0 0 0 0 0
0 0 0 0 0 0 0 0 0 0 0 0 0 0 0 0 0 0 0 0 0 0 0 0 0 0 0 0 0 0 0 0 0 0 0 0 0 0
0 0 0 0 0 0 0 0 0 0 0 0 0 0 0 0 0 0 0 0 0 0 0 0 0 0 0 0 0 0 0 0 0 0 0 0 0 0
0 0 0 0 0 0 0 0 0 0 0 0 0 0 0 0 0 0 0 0 0 0 0 0 0 0 0 0 0 0 0 0 0 0 0 0 0 0
0 0 0 0 0 0 0 0 0 0 0 0 0 0 0 0 0 0 0 0 0 0 0 0 0 0 0 0 0 0 0 0 0 0 0 0 0 0
0 0 0 0 0 0 0 0 0 0 0 0 0 0 0 0 0 0 0 0 0 0 0 0 0 0 0 0 0 0 0 0 0 0 0 0 0 0
0 0 0 0 0 0 0 0 0 0 0 0 0 0 0 0 0 0 0 0 0 0 0 0 0 0 0 0 0 0 0 0 0 0 0 0 0 0
Wind_Speed
1 1 1 1 1 1 1 2 2 2 3 3 2 2 2 2 3 3 4 5 6 5 5 5 6 6 7 7 6 6 7 7 8 9 10 10 11 12
1 1 1 1 1 1 1 1 2 2 2 2 2 3 3 3 4 3 4 6 5 6 6 5 6 6 6 7 7 7 7 7 8 9 10 10 11 11
1 1 1 1 1 1 1 1 2 2 3 3 2 2 3 3 4 3 3 3 3 5 6 5 5 5 5 5 6 6 6 7 8 9 9 9 10 10
1 1 1 1 1 1 1 2 2 2 3 3 2 2 3 3 3 4 3 3 3 5 5 5 5 4 4 5 5 5 6 6 7 8 8 9 9 10
2 2 3 2 2 2 2 2 2 2 2 3 3 2 2 2 3 3 3 3 4 4 5 5 5 5 5 5 5 5 6 6 6 7 7 8 9 9
2 2 3 3 3 3 2 3 2 2 2 2 3 2 2 2 1 2 3 3 4 3 4 4 4 5 5 6 6 6 6 6 6 6 7 7 7 8
1 1 2 3 3 3 2 2 2 2 2 2 2 2 2 2 2 1 3 4 3 2 3 3 3 3 3 5 6 6 6 6 6 6 6 6 6 7
1 2 2 2 2 3 4 4 4 3 3 3 2 3 4 3 2 2 2 2 3 1 2 3 2 3 3 3 4 5 5 5 5 5 5 5 5 6
2 2 2 2 2 2 3 3 3 4 5 4 4 4 4 3 3 3 3 3 4 3 1 3 2 3 3 3 5 5 5 5 5 4 4 4 5 6
2 2 2 3 2 2 2 2 2 3 3 3 4 5 4 4 4 3 3 3 4 3 2 2 3 3 3 3 4 4 4 4 4 4 4 4 5 5
2 2 3 3 3 1 1 2 3 3 2 2 3 4 4 4 3 1 1 2 3 3 1 2 2 3 3 3 3 3 4 4 5 5 4 4 4 4
2 2 3 3 3 1 2 2 3 4 3 3 3 3 3 2 2 2 2 2 2 3 1 2 2 2 2 2 2 3 3 3 4 4 5 5 4 3
2 2 2 3 3 2 2 3 4 4 2 2 2 3 2 2 2 1 2 3 3 3 2 2 2 1 2 3 2 2 3 3 3 3 3 4 4 4
2 2 2 3 3 3 2 2 3 2 1 1 2 2 2 2 2 3 3 3 4 4 3 2 2 2 2 3 3 3 3 3 3 3 3 3 4 4
1 2 2 3 3 2 2 2 2 1 1 1 2 2 2 3 2 2 2 2 3 3 2 2 2 2 2 3 3 3 3 3 3 3 3 3 3 3
1 2 3 3 2 2 3 2 1 1 1 2 2 3 2 2 2 2 2 2 2 3 2 2 2 2 2 3 3 4 3 3 3 3 3 3 3 3
0 1 2 2 2 2 2 2 2 1 1 2 2 2 2 2 2 2 1 1 1 2 3 3 2 1 3 3 3 4 4 4 4 3 3 4 4 3
2 1 1 1 2 2 2 3 2 2 2 2 2 2 2 2 2 2 1 2 2 3 3 3 2 2 1 2 3 4 4 4 4 3 3 4 4 4
1 1 2 2 2 2 2 2 3 3 2 2 2 2 2 2 2 2 2 2 3 3 3 2 2 1 2 4 3 2 3 4 4 3 3 3 4 5
1 2 2 2 2 2 2 3 3 2 2 1 1 1 1 2 2 2 2 3 3 3 3 2 2 2 3 4 4 4 4 4 3 4 4 3 4 5
2 3 3 3 2 2 2 2 2 2 2 2 1 2 2 2 2 2 2 3 3 2 3 3 3 4 2 2 3 4 4 3 3 3 3 3 3 3
3 3 3 3 3 2 2 2 2 2 2 2 2 2 2 2 2 3 3 3 2 2 3 3 3 2 2 2 3 4 5 4 3 3 3 3 3 3
3 3 3 3 3 2 2 2 2 2 2 2 2 2 2 2 2 2 3 3 3 3 3 3 3 2 2 2 3 3 5 5 4 3 3 4 4 6
Wind_Direction
148 139 148 171 146 165 174 180 187 250 271 276 278 279 300 307 314 313 303 304 303 294 287 281 277 272 268 259 255 255 255 252 252 251 249 248 247 245
154 149 164 178 169 167 183 194 196 208 249 270 269 292 304 306 321 314 298 306 308 304 293 283 279 275 274 265 261 258 257 254 252 251 247 246 246 245
176 173 193 183 193 213 195 198 207 199 232 271 267 281 290 302 320 319 305 302 308 309 302 294 291 287 279 271 264 262 261 259 255 253 248 244 243 243
210 196 217 211 215 224 206 214 218 211 217 259 280 286 285 294 307 311 313 309 302 300 296 294 294 293 283 276 273 268 264 259 258 257 255 249 243 241
216 214 223 216 232 235 221 228 235 228 214 231 268 280 284 301 319 315 312 308 305 297 288 289 288 287 281 273 273 270 265 260 255 255 257 255 252 248
232 226 228 224 229 232 234 236 236 241 226 233 258 276 282 293 293 306 318 318 309 305 297 287 281 280 278 277 277 272 265 259 254 254 256 256 255 251
265 252 243 244 242 231 241 237 229 236 237 244 257 278 290 292 288 290 299 309 300 296 302 299 296 288 285 278 274 271 264 258 255 252 254 255 253 250
278 291 284 261 272 264 264 246 225 219 227 231 242 256 272 270 274 275 287 310 305 307 301 298 301 294 295 284 280 273 263 258 254 255 256 257 256 252
260 279 291 304 304 290 291 284 259 244 222 215 235 248 251 254 256 267 265 270 276 293 282 285 290 296 302 301 290 280 272 264 263 264 262 260 258 256
261 256 263 287 292 289 295 308 296 281 252 230 235 249 253 254 237 241 258 274 280 275 235 267 291 298 306 304 304 299 295 285 277 274 272 271 267 263
281 267 252 265 285 291 270 293 305 304 303 278 259 266 270 264 243 219 252 271 292 290 227 249 280 296 293 290 303 311 305 297 291 286 281 277 273 268
296 287 265 258 277 260 227 245 277 290 312 326 324 314 300 290 254 223 233 249 276 280 243 243 270 291 295 290 307 318 316 304 294 291 288 287 279 267
284 289 286 286 290 288 249 233 247 269 287 292 304 315 321 317 305 274 240 232 250 266 257 226 253 256 261 293 304 312 313 312 311 302 291 287 278 261
259 275 284 297 305 303 284 257 258 266 277 298 299 298 300 299 299 296 276 257 251 261 268 238 241 239 252 278 292 307 313 310 303 300 300 294 281 265
262 278 302 315 321 322 319 300 292 270 255 276 280 281 281 286 298 305 307 301 294 286 279 241 233 244 243 259 279 292 301 306 302 299 299 295 289 281
307 349 1 2 7 347 338 333 320 280 249 258 276 283 294 307 313 318 320 330 327 325 328 308 263 246 255 262 266 281 287 287 296 300 301 296 291 279
47 20 14 1 354 345 342 337 333 325 294 280 279 286 300 308 317 323 307 309 309 313 323 333 329 292 261 259 271 276 281 284 285 292 291 295 294 288
100 21 327 313 308 311 311 315 316 312 296 285 283 287 299 306 313 322 313 301 299 300 304 310 317 322 306 272 244 267 281 284 291 290 280 282 291 296
106 288 289 293 296 296 295 296 299 302 299 290 288 290 296 304 309 309 306 300 296 297 299 298 295 290 297 306 308 254 271 288 294 295 288 275 279 291
259 267 272 276 279 279 284 291 295 304 305 302 301 304 299 297 297 296 297 300 301 304 306 302 290 276 269 284 294 302 285 277 288 293 293 286 283 288
270 271 271 267 265 269 274 280 284 291 303 307 307 306 297 296 298 300 299 299 294 297 302 305 303 296 282 276 286 300 310 300 275 279 293 295 300 299
274 271 271 266 260 260 264 269 278 283 290 288 290 292 294 289 290 296 299 300 298 294 295 301 313 313 304 295 301 306 315 327 324 299 288 278 288 290
267 264 260 259 255 254 256 262 267 272 274 278 282 285 288 288 287 286 290 294 300 306 306 311 321 324 319 304 301 306 315 324 329 332 330 322 283 277